Seretse Khama Intl Arpt, Botswana

10:49 PM CAT on December 06, 2016 (GMT +0200)
Sir Seretse Khama International

Weather History for FBSK - June, 2014

Change the Weather History Date:

Tuesday, June 10, 2014

  Actual Average Record
Temperature  
Mean Temperature 55 °F -  
Max Temperature 73 °F 71 °F 78 °F (1997)
Min Temperature 37 °F 41 °F 28 °F (2012)
Degree Days  
Heating Degree Days 10    
Growing Degree Days 5 (Base 50)    
Moisture  
Dew Point 28 °F    
Average Humidity 37    
Maximum Humidity 70    
Minimum Humidity 9    
Precipitation  
Precipitation 0.00 in - - ()
Sea Level Pressure  
Sea Level Pressure 30.29 in    
Wind  
Wind Speed 4 mph ()    
Max Wind Speed 8 mph    
Max Gust Speed -    
Visibility 6.0 miles    
Events      
Averages and records for this station are not official NWS values.
T = Trace of Precipitation, MM = Missing Value Source: Averaged Metar Reports

Daily Weather History Graph

Daily Weather History Graph

Search for Another Location

Airport or City:

Trip Planner

Search our weather history database for the weather conditions in past years. The results will help you decide how hot, cold, wet, or windy it might be!

Date:

Astronomy

Jun. 10, 2014 Rise Set
Actual Time 6:56 AM CAT 5:35 PM CAT
Civil Twilight 6:31 AM CAT 5:59 PM CAT
Nautical Twilight 6:03 AM CAT 6:28 PM CAT
Astronomical Twilight 5:35 AM CAT 6:56 PM CAT
Moon 3:25 PM CAT (6/10) 3:53 AM CAT (6/10)
Length of Visible Light 11h 28m
Length of Day
10h 38m
Waxing Gibbous, 90% of the Moon is Illuminated
Jun 10
Waxing Gibbous
Jun 13
Full
Jun 19
Last Quarter
Jun 27
New
Jul 5
First Quarter

Hourly Weather History & Observations

Time (CAT) Temp. Windchill Dew Point Humidity Pressure Visibility Wind Dir Wind Speed Gust Speed Precip Events Conditions
2:00 AM 41 °F - 31 °F 59%  in 6 mi SSW 3.5 mph - -  
2:00 AM 41.0 °F 39.0 °F 30.2 °F 65% 30.21 in - SSW 3.5 mph - N/A   Clear
3:00 AM 46.4 °F 42.4 °F 33.8 °F 62% 30.21 in - South 8.1 mph - N/A   Clear
4:00 AM 42.8 °F 40.1 °F 32.0 °F 66% 30.21 in - WNW 4.6 mph - N/A   Clear
5:00 AM 37 °F - 28 °F 61%  in 6 mi NW 4.6 mph - -  
5:00 AM 37.4 °F 33.8 °F 28.4 °F 70% 30.24 in - NW 4.6 mph - N/A   Clear
6:00 AM 39.2 °F - 28.4 °F 65% 30.24 in - Variable 2.3 mph - N/A   Clear
7:00 AM 37.4 °F 32.1 °F 26.6 °F 65% 30.27 in - West 6.9 mph - N/A   Clear
8:00 AM 45 °F - 29 °F 42%  in 6 mi SW 3.5 mph - -  
8:00 AM 44.6 °F 43.1 °F 28.4 °F 53% 30.30 in - SW 3.5 mph - N/A   Clear
9:00 AM 55.4 °F - 30.2 °F 38% 30.33 in - SSE 4.6 mph - N/A   Clear
10:00 AM 60.8 °F - 28.4 °F 29% 30.33 in - SE 5.8 mph - N/A   Clear
11:00 AM 64 °F - 30 °F 17%  in 6 mi SE 5.8 mph - -  
11:00 AM 64.4 °F - 30.2 °F 28% 30.33 in - SE 5.8 mph - N/A   Clear
12:00 PM 68.0 °F - 30.2 °F 24% 30.30 in - South 4.6 mph - N/A   Clear
1:00 PM 69.8 °F - 28.4 °F 21% 30.30 in - Variable 4.6 mph - N/A   Clear
2:00 PM 72 °F - 28 °F 10%  in 6 mi SW 4.6 mph - -  
2:00 PM 71.6 °F - 28.4 °F 20% 30.27 in - SW 4.6 mph - N/A   Clear
3:00 PM 73.4 °F - 26.6 °F 18% 30.27 in - Variable 2.3 mph - N/A   Clear
4:00 PM 73.4 °F - 26.6 °F 18% 30.27 in - Variable 4.6 mph - N/A   Clear
5:00 PM 72 °F - 25 °F 9%  in 6 mi South 3.5 mph - -  
5:00 PM 71.6 °F - 24.8 °F 17% 30.27 in - South 3.5 mph - N/A   Clear
6:00 PM 66.2 °F - 26.6 °F 23% 30.30 in - SSW 5.8 mph - N/A   Clear
7:00 PM 59.0 °F - 26.6 °F 29% 30.30 in - ESE 5.8 mph - N/A   Clear
8:00 PM 58 °F - 27 °F 19%  in 6 mi ESE 5.8 mph - -  
8:00 PM 59.0 °F - 26.6 °F 29% 30.33 in - ESE 5.8 mph - N/A   Clear
9:00 PM 50.0 °F - 26.6 °F 40% 30.36 in - SSW 1.2 mph - N/A   Clear
10:00 PM 48.2 °F - 26.6 °F 43% 30.36 in - SW 3.5 mph - N/A   Clear
11:00 PM 48 °F - 29 °F 34%  in 6 mi SW 4.6 mph - -  
11:00 PM 46.4 °F 44.3 °F 28.4 °F 50% 30.36 in - SW 4.6 mph - N/A   Clear